FW5692 Weather Reports


Display with metric or nautical units.
time (UTC)temp
F
wind
direction
speed
MPH
gust
MPH
rain 1hr
in
rain 24hr
in
rain mn
in
humidity
%
barometer
mb
20260505041345 68 188 0.0 0.0 0.00 0.00 0.00 93 1020.6
20260505040856 68 188 0.0 0.0 0.00 0.00 0.00 93 1020.5
20260505040348 68 188 0.0 0.0 0.00 0.00 0.00 93 1020.5
20260505035840 68 188 0.0 0.0 0.00 0.00 0.00 93 1020.6
20260505035334 68 188 0.0 0.0 0.00 0.00 0.00 93 1020.5
20260505035056 68 188 0.0 0.0 0.00 0.00 0.00 93 1020.6
20260505034338 68 188 0.0 0.0 0.00 0.00 0.00 93 1020.6
20260505033828 68 188 0.0 0.0 0.00 0.00 0.00 93 1020.6
20260505033327 68 188 0.0 0.0 0.00 0.00 0.00 93 1020.6
20260505032829 68 188 0.0 0.0 0.00 0.00 0.00 93 1020.5
20260505032322 68 188 0.0 0.0 0.00 0.00 0.00 94 1020.5
20260505031828 67 188 0.0 0.0 0.00 0.00 0.00 94 1020.6
20260505031327 67 189 0.0 0.0 0.00 0.00 0.00 94 1020.6
20260505030820 67 81 0.0 0.0 0.00 0.00 0.00 94 1020.7
20260505030324 67 81 0.0 0.0 0.00 0.00 0.00 94 1020.6
20260505025840 67 81 0.0 0.0 0.00 0.00 0.00 94 1020.5
20260505025334 67 82 0.0 0.0 0.00 0.00 0.00 94 1020.6
20260505024830 67 82 0.0 0.0 0.00 0.00 0.00 94 1020.7
20260505024320 67 82 0.0 0.0 0.00 0.00 0.00 94 1020.6
20260505023829 67 81 0.0 0.0 0.00 0.00 0.00 94 1020.7
20260505023327 67 81 0.0 2.0 0.00 0.00 0.00 94 1020.6
20260505022830 67 77 1.0 3.0 0.00 0.00 0.00 94 1020.5
20260505022322 67 77 1.0 3.0 0.00 0.00 0.00 94 1020.5
20260505021819 67 83 0.0 2.0 0.00 0.00 0.00 94 1020.6
20260505021314 67 88 0.0 0.0 0.00 0.00 0.00 94 1020.6
20260505020814 67 88 0.0 0.0 0.00 0.00 0.00 94 1020.6
20260505020313 67 88 0.0 0.0 0.00 0.00 0.00 94 1020.6
20260505020048 67 87 0.0 0.0 0.00 0.00 0.00 94 1020.6
20260505015317 67 87 0.0 0.0 0.00 0.00 0.00 94 1020.6
20260505015028 67 87 0.0 0.0 0.00 0.00 0.00 94 1020.5
20260505013808 67 86 0.0 0.0 0.00 0.00 0.00 94 1020.4
20260505013304 67 87 0.0 0.0 0.00 0.00 0.00 94 1020.5
20260505012747 67 88 0.0 0.0 0.00 0.00 0.00 94 1020.4
20260505012240 68 83 0.0 0.0 0.00 0.00 0.00 94 1020.5
20260505011735 68 83 0.0 0.0 0.00 0.00 0.00 94 1020.5
20260505011244 68 83 0.0 3.0 0.00 0.00 0.00 94 1020.5
20260505010729 68 83 0.0 3.0 0.00 0.00 0.00 94 1020.5
20260505010221 68 103 0.0 0.0 0.00 0.00 0.00 94 1020.5
20260505005709 68 103 0.0 0.0 0.00 0.00 0.00 94 1020.5
20260505005216 68 103 0.0 2.0 0.00 0.00 0.00 94 1020.3
20260505004704 68 103 0.0 2.0 0.00 0.00 0.00 94 1020.3
20260505004159 68 101 0.0 0.0 0.00 0.00 0.00 94 1020.4
20260505003910 68 101 0.0 0.0 0.00 0.00 0.00 94 1020.3
20260505003140 68 101 0.0 0.0 0.00 0.00 0.00 94 1020.3
20260505002634 68 101 0.0 0.0 0.00 0.00 0.00 94 1020.4
20260505002128 68 101 0.0 0.0 0.00 0.00 0.00 94 1020.5
20260505001628 68 101 0.0 0.0 0.00 0.00 0.00 94 1020.3
20260505001126 68 103 0.0 0.0 0.00 0.00 0.00 94 1020.3
20260505000833 68 103 0.0 0.0 0.00 0.00 0.00 94 1020.3
20260505000115 68 122 0.0 1.0 0.00 0.00 0.00 94 1020.4
20260504235600 68 124 0.0 1.0 0.00 0.00 0.00 94 1020.4
20260504235112 68 122 0.0 1.0 0.00 0.00 0.00 94 1020.3
20260504234547 68 122 0.0 2.0 0.00 0.00 0.00 94 1020.4
20260504234317 68 123 1.0 2.0 0.00 0.00 0.00 94 1020.3
20260504233534 68 123 1.0 2.0 0.00 0.00 0.00 94 1020.2
20260504233036 68 83 1.0 3.0 0.00 0.00 0.00 94 1020.2
20260504232533 68 82 1.0 3.0 0.00 0.00 0.00 94 1020.2
20260504232235 68 79 0.0 0.0 0.00 0.00 0.00 94 1020.2
20260504231522 68 79 0.0 2.0 0.00 0.00 0.00 94 1020.2
20260504231010 68 79 0.0 2.0 0.00 0.00 0.00 94 1020.2
20260504230458 68 79 0.0 3.0 0.00 0.00 0.00 94 1020.2
20260504225951 68 71 1.0 3.0 0.00 0.00 0.00 94 1020.1
20260504225448 68 70 1.0 3.0 0.00 0.00 0.00 94 1020.0
20260504224941 68 99 1.0 3.0 0.00 0.00 0.00 94 1020.1
20260504224434 68 58 2.0 4.0 0.00 0.00 0.00 94 1020.0
20260504223934 68 73 2.0 4.0 0.00 0.00 0.00 93 1020.0
20260504223428 68 65 1.0 4.0 0.00 0.00 0.00 93 1019.8
20260504222930 68 92 1.0 4.0 0.00 0.00 0.00 93 1019.8
20260504222410 68 105 1.0 3.0 0.00 0.00 0.00 93 1019.9
20260504221903 68 84 1.0 4.0 0.00 0.00 0.00 92 1019.9
20260504221359 68 58 1.0 4.0 0.00 0.00 0.00 92 1019.9
20260504220856 69 72 0.0 3.0 0.00 0.00 0.00 92 1019.9
20260504220353 69 81 0.0 3.0 0.00 0.00 0.00 91 1019.7
20260504215844 69 78 1.0 3.0 0.00 0.00 0.00 91 1020.0
20260504215609 69 86 1.0 3.0 0.00 0.00 0.00 91 1019.9
20260504214827 69 86 2.0 4.0 0.00 0.00 0.00 91 1019.9
20260504214321 69 75 2.0 4.0 0.00 0.00 0.00 90 1019.7
20260504213821 69 69 2.0 4.0 0.00 0.00 0.00 90 1019.9
20260504213312 69 75 2.0 4.0 0.00 0.00 0.00 90 1019.8
20260504213034 70 79 2.0 5.0 0.00 0.00 0.00 90 1019.8
20260504212313 69 94 1.0 5.0 0.00 0.00 0.00 89 1019.8
20260504211823 69 109 1.0 3.0 0.00 0.00 0.00 90 1019.8
20260504211317 69 91 1.0 3.0 0.00 0.00 0.00 90 1019.8
20260504210812 69 110 1.0 3.0 0.00 0.00 0.00 90 1019.8
20260504210424 69 90 1.0 3.0 0.00 0.00 0.00 89 1019.7
20260504210344 69 109 1.0 3.0 0.00 0.00 0.00 90 1019.7
20260504205332 69 96 1.0 3.0 0.00 0.00 0.00 89 1019.6
20260504204812 69 128 1.0 3.0 0.00 0.00 0.00 89 1019.8
20260504204317 69 120 1.0 4.0 0.00 0.00 0.00 89 1019.6
20260504203817 70 93 2.0 4.0 0.00 0.00 0.00 89 1019.5
20260504203312 70 46 3.0 6.0 0.00 0.00 0.00 89 1019.5
20260504203053 70 51 3.0 6.0 0.00 0.00 0.00 89 1019.4
20260504202322 70 75 3.0 8.0 0.00 0.00 0.00 88 1019.3
20260504202040 70 54 4.0 10.0 0.00 0.00 0.00 88 1019.3
20260504201317 70 34 5.0 11.0 0.00 0.00 0.00 87 1019.2
20260504200810 70 13 5.0 11.0 0.00 0.00 0.00 87 1019.4
20260504200310 71 324 4.0 10.0 0.00 0.00 0.00 85 1019.2
20260504195815 71 37 3.0 9.0 0.00 0.00 0.00 84 1019.3
20260504195310 71 32 4.0 11.0 0.00 0.00 0.00 83 1019.2
20260504194824 71 349 4.0 11.0 0.00 0.00 0.00 83 1019.1
20260504194311 72 236 5.0 13.0 0.00 0.00 0.00 83 1019.2
20260504193821 72 339 7.0 13.0 0.00 0.00 0.00 82 1019.2
20260504193532 72 338 7.0 15.0 0.00 0.00 0.00 82 1019.1
20260504192814 72 319 7.0 15.0 0.00 0.00 0.00 80 1019.1
20260504192315 73 20 7.0 15.0 0.00 0.00 0.00 79 1019.1
20260504191816 74 188 9.0 20.0 0.00 0.00 0.00 78 1019.2
20260504191309 74 352 8.0 20.0 0.00 0.00 0.00 77 1019.2
20260504190809 76 336 5.0 12.0 0.00 0.00 0.00 73 1019.1
20260504190309 76 322 4.0 11.0 0.00 0.00 0.00 72 1019.0
20260504190049 76 300 4.0 9.0 0.00 0.00 0.00 71 1018.9
20260504185310 76 338 3.0 8.0 0.00 0.00 0.00 71 1019.0
20260504184817 77 60 2.0 7.0 0.00 0.00 0.00 70 1018.9
20260504184533 77 325 2.0 6.0 0.00 0.00 0.00 70 1018.9
20260504183804 77 245 2.0 6.0 0.00 0.00 0.00 70 1019.0
20260504183305 77 312 2.0 6.0 0.00 0.00 0.00 69 1018.9
20260504182800 77 182 2.0 6.0 0.00 0.00 0.00 69 1018.9
20260504182259 77 347 4.0 9.0 0.00 0.00 0.00 69 1018.8
20260504181800 77 353 4.0 11.0 0.00 0.00 0.00 68 1018.8
20260504181259 78 324 4.0 11.0 0.00 0.00 0.00 68 1018.7
20260504181019 78 336 3.0 7.0 0.00 0.00 0.00 67 1018.7
20260504180305 78 298 2.0 6.0 0.00 0.00 0.00 67 1018.6
20260504175756 78 85 3.0 7.0 0.00 0.00 0.00 68 1018.5
20260504175256 78 341 5.0 9.0 0.00 0.00 0.00 68 1018.7
20260504175019 78 315 4.0 9.0 0.00 0.00 0.00 67 1018.8
20260504174256 78 326 4.0 9.0 0.00 0.00 0.00 67 1018.9
20260504173756 78 105 4.0 10.0 0.00 0.00 0.00 67 1018.9
20260504173255 79 96 3.0 10.0 0.00 0.00 0.00 66 1018.8
20260504172800 79 347 3.0 10.0 0.00 0.00 0.00 67 1018.8
20260504172256 79 332 3.0 7.0 0.00 0.00 0.00 67 1019.0
20260504171751 79 122 2.0 7.0 0.00 0.00 0.00 67 1019.0
20260504171257 79 72 1.0 4.0 0.00 0.00 0.00 67 1019.1
20260504170806 79 275 3.0 11.0 0.00 0.00 0.00 67 1019.1
20260504170252 78 297 4.0 11.0 0.00 0.00 0.00 67 1019.3
20260504160239 76 110 1.0 4.0 0.00 0.00 0.00 67 1019.8
20260504151136 74 258 1.0 4.0 0.00 0.00 0.00 66 1020.8
20260504150637 74 191 1.0 3.0 0.00 0.00 0.00 67 1020.9
20260504150124 73 73 1.0 5.0 0.00 0.00 0.00 68 1020.9
20260504141214 69 137 0.0 3.0 0.00 0.00 0.00 72 1021.4
20260504140721 68 0.0 0.0 0.00 0.00 0.00 74 1021.6
20260504140224 67 0.0 0.0 0.00 0.00 0.00 73 1021.7
20260504130215 62 37 1.0 5.0 0.00 0.00 0.00 81 1022.4
20260504110625 53 116 1.0 3.0 0.00 0.00 0.00 89 1021.8
20260504110113 52 125 1.0 3.0 0.00 0.00 0.00 90 1021.7
20260504100516 50 122 0.0 1.0 0.00 0.00 0.00 91 1022.1
20260504081853 51 141 0.0 0.0 0.00 0.00 0.00 90 1021.8
20260504081348 51 141 0.0 0.0 0.00 0.00 0.00 91 1021.5
20260504080852 51 141 0.0 1.0 0.00 0.00 0.00 91 1021.4
20260504080605 51 141 0.0 1.0 0.00 0.00 0.00 91 1021.4
20260504070327 51 153 0.0 0.0 0.00 0.00 0.00 91 1021.5
20260504045824 52 125 0.0 0.0 0.00 0.00 0.00 90 1023.0
20260504045313 52 126 0.0 0.0 0.00 0.00 0.00 90 1023.2
20260504044810 52 127 0.0 0.0 0.00 0.00 0.00 90 1023.4